Regional Weather Roundup
Issued by NWS

Home | Current Version | Previous Version | Graphics & Text | Print | Product List | Glossary On
Versions: 1 2 3 4 5 6 7 8 9 10 11 12 13 14 15 16 17 18 19 20 21 22 23 24 25 26 27 28 29 30 31 32 33 34 35 36 37 38 39 40 41 42 43 44 45 46 47 48 49 50
000
ASUS43 KDTX 230901
RWRMI
MICHIGAN HOURLY REGIONAL WEATHER ROUNDUP
NATIONAL WEATHER SERVICE DETROIT/PONTIAC MI
500 AM EDT SAT SEP 23 2017

NOTE: "FAIR" INDICATES FEW OR NO CLOUDS BELOW 12,000 FEET WITH NO
SIGNIFICANT WEATHER AND/OR OBSTRUCTION TO VISIBILITY.

MIZ047>049-052>055-059>063-066>070-074>076-081>083-231000-
SOUTHEAST LOWER MICHIGAN

CITY           SKY/WX    TMP DP  RH WIND       PRES   REMARKS
ADRIAN           N/A     60  59  96 CALM      30.10S FOG
ALMA           CLEAR     61  60  96 N8        30.09R FOG
ANN ARBOR      FOG       58  58 100 CALM      30.09R VSB 1/4
BAD AXE        CLEAR     69  65  86 S5        30.08R
CARO           CLEAR     67  64  90 S3        30.08R
DETROIT CITY   CLEAR     67  63  87 N3        30.09R
DETROIT        CLEAR     66  64  93 CALM      30.09S
FLINT          CLEAR     64  61  90 CALM      30.09R
GROSSE ILE     CLEAR     64  64  97 CALM      30.07S FOG
HILLSDALE      CLEAR     63  61  94 CALM      30.10S
HOWELL         CLEAR     67  63  88 CALM      30.09S

CITY           SKY/WX    TMP DP  RH WIND       PRES   REMARKS
JACKSON        CLEAR     67  63  87 CALM      30.10R
LAMBERTVILLE   CLEAR     64  61  91 CALM      30.08F FOG
LANSING        CLEAR     69  63  81 CALM      30.09S
LAPEER         FAIR      64  63  97 CALM      30.10R FOG
MASON          CLEAR     66  63  91 SE3       30.09S
MONROE         FOG       62  60  93 CALM      30.08S VSB 3/4
PONTIAC        CLEAR     67  64  90 CALM      30.09R
PORT HOPE        N/A     73  66  78 SW5       30.04R
PORT HURON     CLOUDY    64  63  94 CALM      30.09R FOG
TRI CITIES     CLEAR     71  67  87 S6        30.08R
MIDLAND        FAIR      64  63  99 CALM      30.06S
TROY           CLEAR     68  64  88 NE3       30.11R
SAGINAW HB     CLEAR     70  64  83 S6        30.07R
$$
MIZ043>046-050>051-056>058-064>065-071>073-077>080-231000-
SOUTHWEST LOWER MICHIGAN

CITY           SKY/WX    TMP DP  RH WIND       PRES   REMARKS
BATTLE CREEK   CLEAR     67  65  93 CALM      30.09S
BENTON HARBOR  CLEAR     70  66  87 SE6       30.05S
BIG RAPIDS     FOG       61  60  95 CALM      30.06S VSB 1/4
COLDWATER      CLEAR     66  65  97 CALM      30.09R
FREMONT        FAIR      67  65  96 CALM      30.05S
HOLLAND        CLEAR     69  64  84 S5        30.06S
GRAND RAPIDS   CLEAR     69  65  86 S6        30.07R
KALAMAZOO      CLEAR     68  63  84 E3        30.08S
LUDINGTON      CLEAR     70  63  80 SE3       30.04R
MARSHALL       CLEAR     64  63  97 CALM      30.09S
MUSKEGON       CLEAR     68  64  87 SE5       30.05R
SOUTH HAVEN    CLEAR     72  67  87 CALM      30.05S
$$
MIZ016>042-231000-
NORTHERN LOWER MICHIGAN

CITY           SKY/WX    TMP DP  RH WIND       PRES   REMARKS
ALPENA         CLEAR     67  65  93 SW3       30.05R
BEAVER ISLAND  CLEAR     72  65  77 S7        30.01S
BELLAIRE       CLEAR     62  61  95 CALM      30.04R FOG
CADILLAC       CLEAR     62  58  86 CALM      30.08R FOG
CHARLEVOIX     CLEAR     71  64  78 S6        30.05S
FRANKFORT      CLEAR     78  66  66 S3        30.03R
GAYLORD        CLEAR     66  61  84 SW5       30.08R
GRAYLING       CLEAR     60  58  94 CALM      30.09R
HARBOR SPRINGS CLEAR     67  63  86 CALM      30.03S
HOUGHTON LAKE  CLEAR     59  57  93 CALM      30.09R
MANISTEE       CLEAR     65  62  90 E3        30.03R
OSCODA         CLOUDY    65  65 100 CALM      30.05R
PELLSTON       CLEAR     59  58  96 SE3       30.04R
ROGERS CITY    PTCLDY    72  62  71 SW9       30.05R
TRAVERSE CITY  CLEAR     71  64  78 S5        30.02R
$$
MIZ007>008-015-231000-
EASTERN UPPER MICHIGAN

CITY           SKY/WX    TMP DP  RH WIND       PRES   REMARKS
KINROSS        CLOUDY    65  63  93 S5        30.03R
MACKINAC ISLAN CLOUDY    69  62  78 S9        30.02S
NEWBERRY       CLOUDY    66  65  97 S9        29.99S
S. S. MARIE    CLEAR     66  64  93 E3        30.02S FOG
MUNISING         N/A     71  68  90 VRB5G16   29.94S
$$
MIZ004>006-011>014-085-231000-
CENTRAL UPPER MICHIGAN

CITY           SKY/WX    TMP DP  RH WIND       PRES   REMARKS
MANISTIQUE     CLEAR     65  60  81 S5        29.98S
ESCANABA       FOG       62  62 100 CALM      29.97R VSB 1/4
MENOMINEE      CLEAR     71  65  81 SW3       29.98S
$$
MIZ001>003-009>011-084-231000-
WESTERN UPPER MICHIGAN

CITY           SKY/WX    TMP DP  RH WIND       PRES   REMARKS
IRON MOUNTAIN  CLEAR     61  59  93 CALM      29.98R FOG
HOUGHTON       PTCLDY    64  61  90 CALM      29.89S
COPPER HARBOR    N/A     65  62  90 VRB3      29.87S
IRONWOOD       PTCLDY    76  67  73 S10G25    29.91S
$$

ABBREVIATIONS USED IN REMARKS
   TC - TEMPERATURE IN CELSIUS
  WCI - WIND CHILL INDEX
   HX - HEAT INDEX
  VSB - VISIBILITY





USA.gov is the U.S. government's official web portal to all federal, state and local government web resources and services.